Temperature
25 24 24 25 30 30 28 28 29 28 27 26 25 26 26 25 25 22 19 19 19 18 18 18 18 18 18 18 18 18 18 18 18 18 18 18 18 18 18 18 18 18 18 18 18 18 18 18 18
25 25 25 29 31 29 28 28 28 27 26 26 25 25 25 23 21 20 19 18 19 18 18 18 18 18 18 18 18 18 18 18 18 18 18 18 18 18 18 18 18 18 18 18 18 18 18 18 18
25 26 29 32 31 29 28 28 28 27 26 26 25 25 24 22 21 20 19 19 19 18 18 18 18 18 18 18 18 18 18 18 18 18 18 18 18 18 18 18 18 18 18 18 18 18 18 18 18
26 28 31 32 30 29 29 28 28 27 26 26 26 25 22 21 20 19 19 19 19 19 18 18 18 18 18 18 18 18 18 18 18 18 18 18 18 18 18 18 18 18 18 18 18 18 18 17 17
27 32 32 31 30 30 29 28 28 28 27 26 26 25 22 20 19 19 19 19 19 19 18 17 18 18 18 18 18 18 18 18 18 18 18 18 18 18 18 18 18 18 18 18 18 17 17 17 17
31 33 32 31 30 30 29 28 28 28 27 26 26 25 21 19 19 19 19 19 19 19 18 18 18 18 18 18 18 18 18 18 18 18 18 18 18 18 18 18 18 18 18 17 17 17 17 17 17
33 33 32 31 30 30 29 28 29 28 27 26 26 25 21 20 19 19 19 19 19 19 18 18 18 18 18 18 18 18 18 18 18 18 18 18 18 18 18 18 18 17 17 17 17 17 17 17 17
32 34 32 32 31 30 29 28 28 28 26 25 25 25 23 20 19 19 19 19 19 18 18 18 18 17 17 18 18 18 18 18 18 18 18 18 18 17 17 17 18 17 17 17 17 17 17 17 17
31 34 32 32 32 31 29 29 28 27 26 25 25 25 23 20 20 19 19 19 18 18 18 18 18 18 18 17 17 18 18 18 18 18 18 17 17 17 17 17 18 17 17 17 17 17 17 17 17
33 33 32 32 33 32 30 30 28 28 27 26 24 23 21 20 20 20 20 19 19 18 18 18 18 18 18 17 17 17 17 17 17 17 17 17 17 17 17 18 18 18 18 17 17 17 17 17 17
33 33 33 32 32 31 30 30 29 29 29 27 25 22 21 21 20 20 20 20 19 18 18 18 18 18 18 18 18 18 17 17 17 17 17 17 17 17 17 17 17 17 17 17 17 17 17 17 17
33 32 32 32 31 31 31 30 29 29 28 26 25 23 22 21 21 21 20 20 19 19 19 18 18 18 18 18 18 18 18 18 18 17 17 17 17 17 17 17 17 17 17 17 17 17 17 17 17
33 32 31 31 31 31 30 30 29 28 27 25 24 23 22 22 22 21 20 20 19 19 19 18 18 18 18 18 18 18 18 18 18 17 17 17 17 17 17 17 17 17 17 17 17 17 17 17 17
32 32 32 31 31 30 31 30 29 28 26 25 24 23 23 23 22 21 20 20 20 19 19 19 19 18 18 18 18 18 18 18 18 18 17 17 17 17 17 17 17 17 17 17 17 17 17 17 17
31 32 32 32 31 30 31 31 30 28 26 25 24 24 23 22 22 21 21 20 20 20 19 19 19 19 19 18 18 18 18 18 18 18 17 17 17 17 17 17 17 17 17 17 17 17 17 17 17
33 33 32 32 32 31 31 31 30 27 27 26 25 24 23 22 22 21 21 20 20 20 19 19 19 19 19 19 18 18 18 18 18 18 18 17 17 17 18 17 17 17 17 17 17 17 17 17 17
32 32 32 32 32 32 32 32 30 28 28 27 26 25 24 23 22 22 21 21 20 20 20 19 19 19 19 19 18 18 18 18 18 18 18 18 18 17 17 18 18 17 17 17 17 17 17 17 17
32 32 32 32 32 31 32 32 30 28 28 28 27 26 25 24 23 22 21 21 20 20 20 20 19 19 19 18 18 18 18 18 18 18 18 18 18 18 18 17 18 17 17 17 17 17 17 17 17
32 32 32 32 32 31 31 31 31 29 28 28 27 26 26 25 24 22 22 21 20 20 20 20 19 19 19 19 18 18 18 18 18 18 18 18 18 18 18 18 18 18 17 17 17 17 17 17 17
32 32 32 31 31 31 31 31 31 30 29 28 28 27 26 25 24 23 22 21 20 20 20 20 20 20 19 19 19 18 18 18 18 18 18 18 18 18 18 18 18 18 18 17 17 17 17 18 17
31 31 31 31 31 31 31 31 31 30 29 28 28 27 27 26 25 23 22 22 21 21 20 20 20 20 20 19 19 18 18 18 18 18 18 18 18 18 18 18 18 18 18 18 18 17 17 17 17
30 31 31 31 31 31 31 31 31 31 30 29 28 27 27 26 25 24 23 22 21 21 21 21 21 20 20 20 19 18 18 19 18 18 18 18 18 18 18 18 18 18 18 18 18 17 17 17 17
31 30 31 31 31 31 31 31 32 31 31 30 29 28 27 26 26 24 23 23 22 22 21 21 21 21 20 20 19 19 19 19 18 18 18 18 18 18 18 18 18 18 18 18 18 18 17 17 17
30 30 30 30 31 30 30 30 31 32 31 31 30 29 28 27 26 25 24 23 22 22 21 21 21 21 21 20 20 20 19 19 19 18 18 18 18 18 18 18 18 18 18 18 18 18 17 17 17
30 30 29 29 29 29 30 30 31 32 31 31 30 29 28 27 26 25 24 23 22 22 22 21 21 21 21 20 20 20 19 19 19 19 18 18 18 18 18 18 18 18 18 18 18 18 17 17 17
29 30 29 29 29 30 29 30 31 31 30 29 29 28 28 27 26 25 24 23 23 22 22 21 22 22 21 21 20 20 20 19 19 19 19 18 18 18 18 18 18 18 18 18 17 17 17 17 17
29 30 31 30 30 30 30 30 31 31 30 30 29 28 28 27 26 25 25 24 23 23 22 22 21 21 21 21 20 20 20 19 19 19 19 18 18 18 18 18 18 18 18 18 17 17 17 17 17
30 30 30 30 28 29 29 30 30 30 30 30 29 28 27 26 26 25 24 24 23 22 22 21 21 21 21 21 20 20 20 19 19 19 18 18 18 18 18 18 18 18 18 17 17 17 17 17 17
29 29 30 30 30 29 29 30 31 30 30 29 29 28 27 26 25 25 24 23 22 22 22 21 21 20 20 20 20 20 19 19 19 19 18 18 18 18 18 18 17 17 17 17 17 17 17 16 16
30 30 29 29 28 29 30 30 30 30 29 29 28 27 26 25 25 24 23 23 22 21 21 21 20 20 20 20 20 20 19 19 19 19 18 18 18 18 18 17 17 17 17 17 17 17 16 16 16
Wind_Speed
8 8 5 4 3 11 16 13 11 10 8 9 9 8 10 10 9 10 8 9 10 11 13 14 14 15 15 15 16 17 17 17 17 17 18 17 17 17 18 18 18 18 18 18 18 18 18 18 18
5 5 4 0 8 14 15 12 12 11 10 9 9 9 11 10 10 10 9 10 10 11 12 14 14 14 15 15 16 16 17 17 17 17 17 17 17 17 17 17 17 17 18 18 17 17 17 17 17
6 5 1 7 15 15 14 12 12 11 8 7 7 9 8 8 9 7 10 11 11 11 13 15 13 14 15 15 15 16 16 16 16 16 16 16 16 17 16 16 16 17 17 17 16 16 16 16 15
4 3 3 11 18 16 13 11 10 10 9 8 9 10 9 8 6 10 13 11 12 11 13 15 13 14 14 14 15 15 15 15 15 15 15 16 16 16 16 16 16 16 16 16 15 15 15 14 14
4 1 10 15 17 13 12 9 7 8 8 8 9 12 10 9 11 14 12 11 12 11 13 15 13 13 13 14 14 14 14 14 15 14 15 15 15 15 15 15 15 15 15 15 14 14 14 13 12
1 4 11 14 14 11 10 8 8 11 11 10 12 12 8 9 12 12 12 10 11 11 12 14 13 12 13 13 13 13 14 14 14 13 14 14 14 14 14 14 14 14 14 14 13 13 12 12 11
3 7 12 14 12 11 8 6 8 10 10 9 8 10 8 10 11 12 11 9 10 10 11 11 13 12 12 12 12 13 13 13 13 13 13 13 13 13 13 13 13 13 12 12 12 12 11 11 10
2 5 10 11 12 11 8 7 7 9 9 9 5 7 10 13 13 12 11 9 9 9 9 9 9 10 11 12 12 12 12 12 12 11 12 12 13 12 12 12 12 11 11 11 10 10 10 10 9
2 5 10 10 10 10 9 9 8 7 10 7 5 8 14 17 15 13 11 9 9 8 7 8 9 8 9 11 12 11 11 10 11 10 9 7 9 10 10 12 11 10 10 9 9 9 8 8 9
1 7 10 7 8 9 9 8 9 7 9 8 10 12 17 16 14 13 12 11 10 9 8 7 7 7 8 8 8 7 8 8 7 7 7 7 7 7 9 12 9 9 8 8 8 7 7 6 7
4 7 7 6 6 8 9 8 7 7 7 7 12 16 17 15 13 12 11 10 10 9 8 7 6 5 6 6 6 5 5 6 7 7 6 6 5 6 7 7 8 7 6 6 7 6 3 3 3
4 5 4 6 6 7 8 7 6 5 7 8 13 17 17 15 13 11 10 9 9 9 8 7 7 6 4 4 5 5 5 5 5 6 4 5 4 4 5 4 5 4 4 3 3 3 3 2 1
4 5 5 6 7 7 7 7 6 6 7 11 14 16 15 13 12 10 10 9 9 8 8 8 7 6 5 4 3 4 3 4 5 4 4 3 4 4 4 3 2 2 3 4 2 2 2 1 1
4 5 7 7 7 6 6 6 5 7 10 13 14 14 14 12 12 11 10 10 9 9 9 8 8 7 6 5 4 3 3 3 3 4 4 3 3 3 3 3 2 2 2 1 1 1 1 1 1
5 7 8 6 6 5 6 6 5 9 11 13 13 13 12 11 11 10 10 10 10 9 9 8 8 8 7 6 5 4 4 4 3 3 4 3 3 2 2 2 2 2 2 2 2 1 2 2 2
7 8 7 5 5 5 6 5 8 10 12 12 12 12 12 11 11 10 10 10 10 9 9 9 8 8 8 6 5 4 4 3 3 3 4 4 3 3 2 2 2 2 2 2 2 3 2 2 2
8 9 7 7 5 4 5 3 8 9 11 11 12 12 12 11 11 11 11 11 10 10 10 10 8 8 7 6 5 4 3 3 4 4 4 4 5 4 4 3 1 3 3 2 3 2 3 3 3
10 9 8 7 5 6 6 3 7 9 10 10 11 11 11 12 12 12 11 11 10 11 10 10 10 8 7 6 5 4 4 4 4 4 4 5 5 5 5 4 3 4 3 3 3 3 3 4 4
8 9 8 5 3 6 6 4 6 8 10 10 11 11 12 11 11 11 11 11 11 11 11 11 10 10 8 6 6 6 5 5 4 5 6 6 6 5 5 4 3 4 4 4 4 4 5 4 3
8 10 9 6 3 5 5 5 5 8 10 10 10 11 11 11 11 11 12 12 12 12 12 11 11 11 10 7 5 5 4 5 5 5 5 7 6 6 6 5 5 4 4 5 5 5 5 4 3
11 10 9 6 5 6 6 7 7 7 8 9 9 10 11 11 12 13 13 13 13 13 13 12 12 11 11 9 7 5 5 5 5 5 5 6 7 7 6 6 6 5 5 5 5 5 6 5 4
11 7 7 7 8 6 6 6 7 7 8 9 10 10 11 12 13 13 13 13 13 13 13 12 12 11 10 10 9 8 7 6 6 5 4 5 7 7 7 6 6 6 6 5 6 5 5 6 5
6 6 6 8 8 7 7 8 4 6 6 7 9 10 11 12 13 13 14 13 13 13 12 12 11 11 11 10 10 9 8 6 5 5 5 5 5 6 6 6 5 5 5 5 5 5 6 5 5
8 8 6 7 9 10 8 8 5 4 4 4 5 8 10 11 12 12 13 12 12 12 11 11 11 11 10 11 10 9 8 7 6 6 5 5 4 5 6 6 5 5 5 5 6 6 6 5 5
12 11 8 9 10 9 6 8 5 1 1 3 2 4 7 10 11 12 13 13 13 12 12 11 11 11 11 10 9 9 8 8 8 7 6 6 4 4 4 5 5 5 5 5 5 6 6 5 5
16 16 11 8 9 8 7 8 4 1 1 1 2 2 4 8 10 11 12 12 12 13 12 12 11 10 10 10 9 8 8 7 6 7 6 5 5 4 4 5 5 5 5 5 5 5 5 4 4
15 15 12 9 8 8 8 6 6 4 3 2 1 3 4 6 8 10 11 11 11 12 12 12 11 10 9 9 8 7 7 7 6 4 5 4 4 4 4 4 4 4 4 4 4 3 3 3 3
11 13 9 11 9 10 9 10 6 7 5 2 1 2 4 5 6 7 8 9 10 10 10 10 10 9 8 8 7 6 6 6 5 4 4 3 3 3 3 3 3 3 3 3 3 3 2 2 2
12 14 12 11 10 10 9 6 4 4 3 2 2 2 3 5 6 6 7 8 9 9 9 9 9 8 7 7 6 5 5 5 4 4 4 3 3 2 3 2 2 2 2 2 2 2 1 1 1
15 15 15 12 10 10 10 4 6 4 3 2 2 3 4 5 6 7 8 9 8 8 8 8 8 7 7 6 6 5 4 4 4 4 3 3 2 2 2 2 2 2 1 1 2 2 1 1 1
Wind_Direction
193 188 211 231 105 73 68 68 74 84 76 74 72 65 66 50 52 89 107 112 109 105 106 107 97 98 98 98 99 99 99 99 99 99 99 99 98 97 98 98 98 100 100 99 98 98 99 99 100
183 191 225 59 71 76 69 69 72 73 92 99 81 76 75 67 70 102 119 117 116 110 109 104 102 99 98 98 98 98 98 97 97 98 99 100 100 98 98 98 98 100 101 101 100 101 101 101 101
195 226 293 67 62 67 75 73 82 87 93 94 88 70 67 80 93 106 119 126 118 112 109 106 105 101 99 97 96 96 96 96 96 97 98 99 100 99 99 99 100 100 101 101 101 102 103 104 104
219 211 88 74 73 68 77 84 91 97 89 88 98 88 81 74 93 115 126 127 122 119 113 109 109 105 103 101 99 99 98 98 97 96 97 98 98 100 100 100 100 100 100 101 102 102 105 106 107
243 98 86 79 76 77 79 81 81 86 88 95 98 99 88 79 105 121 129 131 126 119 115 114 111 108 106 104 102 102 101 100 98 97 98 99 99 99 99 100 100 100 100 101 100 100 104 106 107
219 82 81 81 83 84 84 84 85 91 99 102 106 104 89 107 121 130 129 128 123 120 116 117 114 110 108 106 104 102 101 100 100 100 101 102 102 101 101 100 100 101 101 101 100 99 100 102 104
45 73 79 84 91 90 88 85 87 99 103 99 106 105 114 126 128 131 129 128 122 122 120 124 126 123 116 109 106 104 103 103 103 102 103 104 104 104 103 102 102 103 102 101 101 101 100 102 104
2 98 88 83 85 89 104 99 96 102 100 108 106 116 137 143 141 138 134 128 127 125 123 122 119 124 128 121 111 108 106 107 107 105 106 112 116 114 119 115 106 105 103 101 101 103 104 107 107
262 92 83 79 81 100 121 116 108 104 116 110 87 100 129 140 145 142 140 140 136 132 131 130 130 132 128 123 124 126 122 121 126 118 121 138 124 120 127 99 107 108 106 103 102 106 114 124 127
20 83 78 72 77 106 125 119 123 133 126 121 113 113 130 145 151 152 153 152 148 145 142 138 134 138 133 125 130 133 130 126 123 116 120 111 102 103 104 112 111 110 114 118 114 126 155 180 135
66 76 84 91 91 111 125 122 132 130 123 136 142 143 148 154 157 159 157 152 147 152 150 144 140 142 135 136 138 128 121 123 130 122 122 113 122 123 121 127 132 131 146 137 137 167 142 109 89
94 78 82 98 113 122 124 129 130 112 84 119 141 149 155 162 164 162 158 156 155 160 157 149 150 150 144 138 135 146 140 138 130 130 138 125 114 111 111 121 121 134 129 111 126 122 102 83 104
107 101 98 110 129 128 132 127 124 116 109 125 139 152 160 165 164 162 162 162 162 166 166 158 162 157 157 153 166 147 145 141 131 134 134 134 134 126 124 115 111 128 123 140 141 131 121 136 193
106 121 120 123 126 142 145 133 138 123 134 139 150 159 166 167 168 167 170 171 173 175 171 167 173 167 167 172 172 161 159 150 153 146 139 157 138 126 133 149 151 148 152 117 155 153 175 224 237
148 144 133 132 142 152 169 150 143 139 149 154 161 165 169 173 175 177 177 180 180 178 172 175 179 177 179 183 185 179 178 177 167 149 153 178 177 157 182 156 181 172 170 176 214 219 228 232 231
181 186 164 145 163 168 218 131 131 153 164 166 169 171 177 181 185 184 180 184 184 181 178 183 187 181 184 186 192 193 195 186 191 180 175 189 200 198 217 214 196 181 216 220 213 237 244 248 260
197 199 180 155 179 186 223 137 138 165 176 175 178 180 185 186 191 190 189 187 186 185 182 185 190 186 187 185 191 201 201 211 213 199 197 196 206 205 218 233 218 227 229 241 257 224 265 262 268
194 196 191 178 174 208 218 170 152 174 187 184 185 187 191 195 194 192 194 192 188 188 188 189 191 191 190 193 194 202 206 214 214 204 206 214 211 207 220 220 218 244 248 246 260 270 261 268 264
204 206 197 178 169 217 221 209 174 180 194 194 193 195 198 199 190 188 192 195 191 191 191 193 195 190 196 202 206 202 207 216 213 211 207 217 221 215 224 243 218 236 243 249 254 257 249 253 261
208 209 199 170 164 226 227 221 190 188 202 204 201 203 203 196 189 188 192 193 195 194 195 198 200 198 201 204 212 216 223 225 224 223 207 221 223 223 222 230 239 234 243 247 252 255 267 265 252
209 213 205 188 181 208 239 223 200 193 205 206 208 209 208 201 193 189 192 193 195 196 199 202 203 202 206 206 210 212 210 226 222 219 214 221 225 227 234 229 241 244 251 251 253 250 253 263 258
201 208 209 201 213 206 235 238 199 199 202 208 213 213 211 204 198 194 193 193 196 197 197 202 202 205 206 208 217 219 222 229 231 231 224 220 224 231 231 233 239 246 251 250 251 245 251 256 262
191 172 199 210 222 230 217 253 209 179 216 218 217 215 211 205 199 195 195 194 196 197 195 197 200 204 205 211 216 219 228 234 235 235 228 231 222 227 234 235 238 241 248 252 261 262 255 254 256
158 163 179 217 232 232 228 246 241 198 233 237 214 214 211 204 197 193 193 190 193 194 195 195 195 201 203 206 213 220 231 237 241 237 235 230 227 227 230 235 237 242 246 247 252 252 247 252 256
193 194 199 210 220 228 210 239 245 272 269 264 244 210 204 199 195 192 192 190 190 191 193 194 191 197 199 204 211 216 225 232 236 238 233 235 237 233 226 232 235 243 246 247 249 247 252 244 244
205 210 217 220 221 212 195 231 230 191 208 242 240 208 194 192 191 192 194 193 190 188 189 190 192 197 199 204 208 214 217 226 233 231 242 235 242 241 234 229 233 240 247 245 241 245 245 243 243
201 216 229 236 243 239 209 212 217 198 192 164 156 173 176 182 187 191 191 188 186 187 188 190 189 193 199 204 205 212 217 226 234 233 235 243 240 239 232 230 232 238 243 245 239 234 240 240 244
219 206 212 228 230 233 221 220 214 185 194 194 195 166 153 162 169 178 179 176 177 182 182 182 184 190 195 197 203 205 209 212 219 227 227 239 240 236 233 225 228 232 229 226 230 228 230 231 240
193 203 214 221 235 237 229 211 172 184 190 205 186 144 141 147 151 156 160 162 165 168 167 171 177 181 184 190 194 200 199 200 204 213 218 220 224 220 222 220 217 221 216 204 201 214 206 196 205
207 207 207 212 217 239 250 199 127 157 166 178 150 125 122 130 135 141 144 145 149 153 157 161 167 170 173 177 179 181 180 180 186 194 201 201 199 205 206 195 194 203 197 188 188 194 195 192 197
Height
1501 1501 1502 1503 1497 1501 1510 1510 1508 1512 1516 1520 1521 1521 1523 1526 1528 1541 1545 1545 1546 1546 1546 1545 1546 1546 1547 1548 1549 1549 1550 1550 1551 1552 1552 1553 1553 1554 1555 1556 1556 1557 1558 1559 1559 1560 1561 1562 1562
1503 1503 1504 1500 1497 1511 1518 1512 1514 1516 1521 1523 1524 1525 1527 1533 1538 1542 1545 1547 1548 1549 1549 1549 1548 1549 1550 1551 1552 1552 1553 1554 1554 1555 1556 1556 1557 1558 1558 1559 1560 1560 1561 1562 1563 1563 1564 1565 1566
1504 1504 1504 1497 1503 1513 1519 1515 1518 1521 1523 1524 1527 1529 1533 1539 1542 1545 1547 1549 1550 1551 1552 1550 1551 1552 1553 1554 1555 1555 1556 1557 1558 1558 1559 1560 1560 1561 1562 1562 1563 1564 1564 1565 1566 1567 1567 1568 1569
1507 1506 1502 1501 1512 1513 1514 1517 1520 1522 1525 1527 1528 1532 1538 1543 1545 1547 1548 1551 1552 1554 1555 1553 1554 1555 1556 1557 1558 1559 1559 1560 1561 1561 1562 1563 1563 1564 1565 1566 1566 1567 1567 1568 1569 1570 1570 1571 1571
1507 1502 1500 1508 1514 1515 1517 1520 1521 1522 1526 1528 1530 1535 1542 1546 1547 1548 1550 1553 1554 1556 1557 1556 1556 1558 1559 1560 1561 1562 1562 1563 1564 1564 1565 1566 1566 1567 1568 1568 1569 1570 1570 1571 1572 1572 1573 1573 1574
1506 1499 1504 1515 1518 1517 1520 1522 1523 1525 1529 1532 1533 1537 1545 1548 1550 1551 1553 1555 1557 1558 1559 1558 1559 1560 1561 1562 1563 1564 1565 1566 1566 1567 1568 1568 1569 1570 1570 1571 1572 1573 1573 1574 1575 1575 1576 1576 1577
1505 1500 1507 1511 1517 1519 1522 1524 1524 1527 1530 1534 1536 1539 1547 1550 1552 1553 1555 1557 1558 1560 1561 1562 1563 1562 1563 1564 1565 1566 1567 1568 1569 1570 1570 1571 1571 1572 1573 1574 1575 1575 1576 1577 1577 1578 1578 1579 1579
1508 1502 1507 1510 1514 1520 1524 1526 1528 1529 1534 1538 1539 1540 1547 1551 1553 1555 1557 1558 1560 1561 1562 1564 1565 1566 1567 1567 1567 1568 1569 1570 1571 1572 1573 1573 1574 1575 1576 1576 1577 1578 1579 1579 1580 1580 1581 1581 1581
1509 1504 1510 1511 1513 1519 1524 1527 1531 1533 1536 1539 1541 1542 1547 1550 1553 1556 1558 1560 1561 1562 1564 1566 1567 1568 1570 1571 1570 1571 1572 1572 1573 1574 1575 1576 1578 1579 1579 1579 1579 1580 1581 1581 1582 1582 1583 1583 1583
1507 1507 1512 1512 1513 1517 1524 1526 1531 1533 1536 1540 1543 1546 1549 1551 1554 1557 1559 1561 1562 1564 1566 1567 1568 1570 1571 1572 1572 1574 1575 1575 1576 1577 1578 1579 1579 1580 1581 1580 1581 1582 1582 1583 1584 1584 1585 1586 1587
1509 1510 1513 1515 1517 1519 1523 1527 1530 1531 1533 1538 1543 1547 1550 1553 1556 1558 1560 1562 1564 1565 1567 1568 1569 1570 1572 1573 1574 1575 1576 1577 1578 1578 1579 1580 1581 1582 1583 1584 1584 1584 1584 1586 1585 1587 1588 1588 1588
1513 1515 1516 1517 1521 1522 1524 1528 1531 1532 1535 1539 1543 1547 1550 1553 1556 1559 1561 1563 1565 1566 1568 1569 1570 1571 1572 1574 1576 1576 1578 1578 1580 1579 1580 1582 1583 1583 1584 1585 1586 1586 1587 1587 1588 1588 1588 1589 1589
1514 1516 1519 1520 1522 1524 1526 1528 1531 1535 1539 1541 1545 1548 1552 1554 1557 1560 1562 1564 1565 1567 1568 1569 1570 1572 1572 1573 1575 1577 1578 1580 1580 1580 1581 1582 1584 1584 1585 1585 1586 1587 1588 1588 1588 1589 1589 1589 1589
1517 1518 1519 1521 1523 1526 1527 1529 1532 1536 1540 1543 1546 1549 1552 1555 1557 1560 1562 1564 1565 1567 1569 1570 1571 1572 1573 1574 1575 1577 1579 1579 1581 1581 1582 1582 1584 1585 1586 1586 1586 1588 1588 1589 1589 1589 1589 1589 1589
1519 1517 1519 1521 1523 1526 1526 1528 1531 1536 1540 1543 1547 1550 1553 1555 1558 1560 1562 1563 1565 1567 1569 1570 1571 1572 1573 1575 1576 1578 1579 1580 1581 1582 1582 1583 1584 1585 1585 1586 1587 1588 1588 1588 1589 1589 1589 1589 1589
1516 1515 1520 1521 1522 1525 1526 1528 1530 1536 1539 1542 1546 1549 1552 1555 1557 1560 1561 1563 1565 1567 1568 1570 1572 1572 1573 1574 1576 1578 1579 1580 1581 1582 1583 1583 1584 1584 1584 1586 1587 1587 1588 1588 1588 1589 1589 1589 1589
1515 1518 1519 1521 1521 1522 1522 1524 1530 1535 1537 1541 1544 1548 1551 1554 1557 1559 1561 1562 1564 1566 1567 1569 1571 1573 1574 1575 1576 1577 1578 1579 1581 1581 1582 1583 1583 1583 1584 1585 1586 1586 1587 1587 1588 1588 1588 1588 1588
1518 1516 1518 1520 1520 1522 1522 1522 1528 1533 1536 1538 1542 1546 1549 1551 1555 1557 1559 1561 1563 1565 1566 1568 1570 1572 1573 1574 1575 1577 1578 1579 1580 1580 1581 1582 1582 1583 1583 1584 1584 1586 1586 1586 1586 1586 1586 1586 1586
1512 1515 1518 1519 1520 1522 1522 1523 1525 1531 1534 1536 1539 1542 1546 1549 1553 1555 1557 1560 1562 1563 1565 1566 1568 1570 1571 1573 1575 1576 1577 1578 1579 1579 1580 1580 1581 1582 1582 1583 1583 1583 1584 1584 1584 1584 1584 1584 1584
1515 1518 1518 1520 1522 1522 1522 1522 1522 1528 1531 1533 1536 1539 1542 1546 1550 1553 1555 1557 1559 1561 1562 1564 1566 1568 1570 1572 1573 1574 1576 1577 1577 1578 1578 1579 1579 1580 1581 1580 1581 1581 1581 1581 1582 1582 1582 1583 1582
1517 1517 1518 1521 1523 1521 1522 1523 1522 1524 1528 1531 1534 1537 1539 1542 1546 1549 1551 1554 1556 1558 1560 1562 1564 1566 1568 1569 1571 1572 1573 1574 1575 1576 1576 1577 1577 1578 1578 1578 1579 1579 1579 1579 1579 1579 1579 1580 1580
1520 1515 1517 1520 1524 1524 1524 1530 1519 1518 1523 1527 1530 1533 1535 1538 1542 1545 1548 1550 1552 1555 1557 1559 1562 1564 1565 1567 1569 1570 1571 1572 1573 1574 1575 1575 1575 1575 1575 1576 1576 1576 1576 1576 1576 1577 1577 1577 1578
1515 1518 1518 1520 1522 1523 1523 1527 1518 1516 1520 1521 1524 1528 1531 1534 1538 1541 1544 1546 1549 1552 1555 1557 1559 1561 1562 1564 1565 1567 1568 1570 1571 1571 1572 1572 1573 1572 1573 1573 1573 1573 1573 1573 1573 1574 1574 1574 1575
1518 1520 1522 1521 1520 1534 1526 1529 1525 1513 1516 1516 1519 1524 1527 1530 1534 1537 1541 1544 1546 1549 1552 1553 1555 1557 1559 1561 1563 1564 1566 1567 1568 1568 1569 1569 1570 1570 1570 1570 1570 1570 1570 1570 1570 1570 1570 1571 1571
1517 1522 1533 1538 1536 1533 1522 1527 1522 1511 1513 1516 1518 1520 1523 1527 1530 1534 1537 1540 1543 1545 1548 1550 1552 1554 1556 1558 1560 1561 1562 1564 1564 1565 1566 1566 1567 1567 1567 1567 1566 1567 1567 1567 1567 1567 1567 1567 1567
1514 1514 1528 1538 1536 1527 1526 1527 1515 1511 1515 1517 1518 1520 1522 1524 1527 1530 1533 1536 1539 1542 1545 1547 1549 1551 1554 1555 1557 1558 1560 1561 1562 1562 1563 1563 1564 1564 1564 1563 1563 1563 1564 1564 1563 1563 1564 1564 1564
1513 1511 1506 1517 1522 1527 1520 1518 1513 1511 1513 1515 1517 1518 1519 1522 1524 1527 1530 1533 1537 1539 1542 1544 1546 1548 1551 1553 1554 1555 1557 1558 1559 1559 1560 1560 1561 1561 1561 1561 1561 1561 1561 1561 1561 1561 1560 1561 1561
1505 1506 1514 1519 1533 1535 1525 1521 1515 1511 1511 1513 1515 1516 1518 1520 1523 1525 1528 1531 1534 1537 1540 1542 1544 1546 1548 1550 1552 1553 1554 1555 1556 1557 1557 1558 1558 1558 1558 1558 1558 1558 1559 1559 1558 1558 1558 1558 1557
1510 1510 1510 1512 1515 1526 1529 1520 1503 1507 1510 1512 1514 1516 1518 1519 1522 1524 1526 1529 1532 1535 1538 1540 1542 1544 1546 1548 1549 1551 1552 1553 1554 1554 1555 1555 1555 1555 1555 1555 1556 1556 1556 1556 1556 1556 1556 1555 1555
1501 1503 1508 1518 1523 1518 1517 1515 1503 1507 1510 1512 1514 1516 1518 1520 1522 1524 1526 1528 1531 1534 1536 1538 1541 1543 1544 1546 1548 1549 1550 1551 1551 1552 1552 1552 1552 1553 1553 1553 1553 1554 1554 1554 1554 1554 1554 1553 1553